Time,TemperatureF,DewpointF,PressureIn,WindDirection,WindDirectionDegrees,WindSpeedMPH,WindSpeedGustMPH,Humidity,HourlyPrecipIn,Conditions,Clouds,dailyrainin,SoftwareType,DateUTC
2013-01-07 00:02:00,41.0,40.0,29.99,SW,216,0.0,-999.0,96,-99.99,,,-99.99,,2013-01-07 08:02:00,
2013-01-07 00:11:00,41.0,40.0,29.99,SW,216,0.0,-999.0,96,-99.99,,,-99.99,,2013-01-07 08:11:00,
2013-01-07 00:22:00,42.0,41.0,29.98,SW,218,0.0,-999.0,96,-99.99,,,-99.99,,2013-01-07 08:22:00,
2013-01-07 00:32:00,42.0,41.0,29.98,SW,218,0.0,-999.0,96,-99.99,,,-99.99,,2013-01-07 08:32:00,
2013-01-07 00:42:00,42.0,41.0,29.98,SW,218,0.0,-999.0,96,-99.99,,,-99.99,,2013-01-07 08:42:00,
2013-01-07 00:52:00,42.0,41.0,29.97,SW,218,0.0,-999.0,96,-99.99,,,-99.99,,2013-01-07 08:52:00,
2013-01-07 01:02:00,42.0,41.0,29.97,SW,218,0.0,-999.0,96,-99.99,,,-99.99,,2013-01-07 09:02:00,
2013-01-07 01:12:00,42.0,41.0,29.97,SW,218,0.0,-999.0,96,-99.99,,,-99.99,,2013-01-07 09:12:00,
2013-01-07 01:22:00,42.0,41.0,29.96,SW,218,0.0,-999.0,96,-99.99,,,-99.99,,2013-01-07 09:22:00,
2013-01-07 01:32:00,42.0,41.0,29.96,SW,218,0.0,-999.0,96,-99.99,,,-99.99,,2013-01-07 09:32:00,
2013-01-07 01:42:00,42.0,41.0,29.96,SW,218,0.0,-999.0,96,-99.99,,,-99.99,,2013-01-07 09:42:00,
2013-01-07 01:52:00,42.0,41.0,29.96,SW,218,0.0,-999.0,96,-99.99,,,-99.99,,2013-01-07 09:52:00,
2013-01-07 02:02:00,42.0,41.0,29.96,SW,218,0.0,-999.0,96,-99.99,,,-99.99,,2013-01-07 10:02:00,
2013-01-07 02:11:00,42.0,41.0,29.96,SW,218,0.0,-999.0,96,-99.99,,,-99.99,,2013-01-07 10:11:00,
2013-01-07 02:22:00,42.0,41.0,29.95,SW,218,0.0,-999.0,96,-99.99,,,-99.99,,2013-01-07 10:22:00,
2013-01-07 02:32:00,42.0,41.0,29.94,SW,218,0.0,-999.0,96,-99.99,,,-99.99,,2013-01-07 10:32:00,
2013-01-07 02:42:00,42.0,41.0,29.94,SW,218,0.0,-999.0,96,-99.99,,,-99.99,,2013-01-07 10:42:00,
2013-01-07 02:52:00,42.0,41.0,29.93,SW,218,0.0,-999.0,97,-99.99,,,-99.99,,2013-01-07 10:52:00,
2013-01-07 03:02:00,42.0,41.0,29.93,WSW,247,0.0,-999.0,97,-99.99,,,-99.99,,2013-01-07 11:02:00,
2013-01-07 03:12:00,42.0,41.0,29.93,WSW,247,0.0,-999.0,97,-99.99,,,-99.99,,2013-01-07 11:12:00,
2013-01-07 03:22:00,42.0,41.0,29.92,WSW,247,0.0,-999.0,97,-99.99,,,-99.99,,2013-01-07 11:22:00,
2013-01-07 03:32:00,42.0,41.0,29.91,WSW,247,0.0,-999.0,97,-99.99,,,-99.99,,2013-01-07 11:32:00,
2013-01-07 03:42:00,42.0,41.0,29.91,WSW,247,0.0,-999.0,97,-99.99,,,-99.99,,2013-01-07 11:42:00,
2013-01-07 03:53:00,42.0,41.0,29.91,WSW,247,0.0,-999.0,97,-99.99,,,-99.99,,2013-01-07 11:53:00,
2013-01-07 04:02:00,43.0,42.0,29.90,SW,217,0.0,-999.0,97,-99.99,,,-99.99,,2013-01-07 12:02:00,
2013-01-07 04:12:00,43.0,42.0,29.89,SW,217,0.0,-999.0,97,-99.99,,,-99.99,,2013-01-07 12:12:00,
2013-01-07 04:22:00,43.0,42.0,29.89,SW,217,0.0,-999.0,97,-99.99,,,-99.99,,2013-01-07 12:22:00,
2013-01-07 04:32:00,43.0,42.0,29.89,SW,217,0.0,-999.0,97,-99.99,,,-99.99,,2013-01-07 12:32:00,
2013-01-07 04:42:00,43.0,42.0,29.89,SW,217,0.0,-999.0,97,-99.99,,,-99.99,,2013-01-07 12:42:00,
2013-01-07 04:53:00,43.0,42.0,29.88,SW,215,0.0,-999.0,97,-99.99,,,-99.99,,2013-01-07 12:53:00,
2013-01-07 05:02:00,43.0,42.0,29.86,SW,215,0.0,-999.0,97,-99.99,,,-99.99,,2013-01-07 13:02:00,
2013-01-07 05:12:00,43.0,42.0,29.86,SW,215,0.0,-999.0,97,-99.99,,,-99.99,,2013-01-07 13:12:00,
2013-01-07 05:22:00,44.0,43.0,29.85,West,268,0.0,-999.0,97,-99.99,,,-99.99,,2013-01-07 13:22:00,
2013-01-07 05:32:00,44.0,43.0,29.84,West,268,0.0,-999.0,97,-99.99,,,-99.99,,2013-01-07 13:32:00,
2013-01-07 05:42:00,44.0,43.0,29.84,West,268,0.0,-999.0,97,-99.99,,,-99.99,,2013-01-07 13:42:00,
2013-01-07 05:53:00,44.0,43.0,29.83,SSW,200,0.0,-999.0,97,-99.99,,,-99.99,,2013-01-07 13:53:00,
2013-01-07 06:02:00,44.0,43.0,29.83,NNE,13,0.0,-999.0,97,-99.99,,,-99.99,,2013-01-07 14:02:00,
2013-01-07 06:12:00,44.0,43.0,29.83,NNE,13,0.0,-999.0,97,-99.99,,,-99.99,,2013-01-07 14:12:00,
2013-01-07 06:22:00,45.0,44.0,29.83,WSW,239,1.0,-999.0,98,-99.99,,,-99.99,,2013-01-07 14:22:00,
2013-01-07 06:32:00,45.0,44.0,29.83,SSE,166,0.0,-999.0,97,-99.99,,,-99.99,,2013-01-07 14:32:00,
2013-01-07 06:42:00,45.0,44.0,29.83,SSE,166,0.0,-999.0,97,-99.99,,,-99.99,,2013-01-07 14:42:00,
2013-01-07 06:53:00,45.0,44.0,29.83,SSE,152,1.0,-999.0,98,-99.99,,,-99.99,,2013-01-07 14:53:00,
2013-01-07 07:02:00,45.0,44.0,29.82,SSW,196,0.0,-999.0,97,-99.99,,,-99.99,,2013-01-07 15:02:00,
2013-01-07 07:12:00,45.0,44.0,29.82,SSW,196,0.0,-999.0,97,-99.99,,,-99.99,,2013-01-07 15:12:00,
2013-01-07 07:22:00,46.0,45.0,29.82,SSW,200,1.0,-999.0,97,-99.99,,,-99.99,,2013-01-07 15:22:00,
2013-01-07 07:33:00,46.0,45.0,29.82,SSW,207,0.0,-999.0,97,-99.99,,,-99.99,,2013-01-07 15:33:00,
2013-01-07 07:42:00,46.0,45.0,29.82,SSW,207,0.0,-999.0,97,-99.99,,,-99.99,,2013-01-07 15:42:00,
2013-01-07 07:53:00,46.0,45.0,29.80,SSW,207,1.0,-999.0,97,-99.99,,,-99.99,,2013-01-07 15:53:00,
2013-01-07 08:02:00,46.0,45.0,29.80,SSE,165,1.0,-999.0,97,-99.99,,,-99.99,,2013-01-07 16:02:00,
2013-01-07 08:12:00,46.0,45.0,29.80,SSE,165,1.0,-999.0,97,-99.99,,,-99.99,,2013-01-07 16:12:00,
2013-01-07 08:22:00,47.0,46.0,29.80,South,186,1.0,-999.0,97,-99.99,,,-99.99,,2013-01-07 16:22:00,
2013-01-07 08:32:00,47.0,46.0,29.81,SSW,194,1.0,-999.0,97,-99.99,,,-99.99,,2013-01-07 16:32:00,
2013-01-07 08:42:00,47.0,46.0,29.81,SSW,194,1.0,-999.0,97,-99.99,,,-99.99,,2013-01-07 16:42:00,
2013-01-07 08:53:00,47.0,46.0,29.82,SSW,192,0.0,-999.0,96,-99.99,,,-99.99,,2013-01-07 16:53:00,
2013-01-07 09:02:00,47.0,46.0,29.82,North,355,1.0,-999.0,96,-99.99,,,-99.99,,2013-01-07 17:02:00,
2013-01-07 09:12:00,47.0,46.0,29.82,North,355,1.0,-999.0,96,-99.99,,,-99.99,,2013-01-07 17:12:00,
2013-01-07 09:22:00,48.0,47.0,29.83,NW,309,1.0,-999.0,96,-99.99,,,-99.99,,2013-01-07 17:22:00,
2013-01-07 09:32:00,48.0,47.0,29.84,SSE,154,1.0,-999.0,96,-99.99,,,-99.99,,2013-01-07 17:32:00,
2013-01-07 09:42:00,48.0,47.0,29.84,SSE,154,1.0,-999.0,96,-99.99,,,-99.99,,2013-01-07 17:42:00,
2013-01-07 09:53:00,48.0,47.0,29.85,SSW,199,1.0,-999.0,96,-99.99,,,-99.99,,2013-01-07 17:53:00,
2013-01-07 10:02:00,49.0,48.0,29.86,South,169,0.0,-999.0,96,-99.99,,,-99.99,,2013-01-07 18:02:00,
2013-01-07 10:12:00,49.0,48.0,29.86,South,169,0.0,-999.0,96,-99.99,,,-99.99,,2013-01-07 18:12:00,
2013-01-07 10:23:00,49.0,48.0,29.87,SSW,206,1.0,-999.0,96,-99.99,,,-99.99,,2013-01-07 18:23:00,
2013-01-07 10:32:00,49.0,48.0,29.87,South,180,1.0,-999.0,96,-99.99,,,-99.99,,2013-01-07 18:32:00,
2013-01-07 10:42:00,49.0,48.0,29.87,South,180,1.0,-999.0,96,-99.99,,,-99.99,,2013-01-07 18:42:00,
2013-01-07 10:52:00,49.0,48.0,29.88,SSW,194,1.0,-999.0,96,-99.99,,,-99.99,,2013-01-07 18:52:00,
2013-01-07 11:02:00,49.0,48.0,29.88,WSW,240,1.0,-999.0,96,-99.99,,,-99.99,,2013-01-07 19:02:00,
2013-01-07 11:12:00,49.0,48.0,29.88,WSW,240,1.0,-999.0,96,-99.99,,,-99.99,,2013-01-07 19:12:00,
2013-01-07 11:22:00,50.0,49.0,29.88,SSW,200,2.0,-999.0,95,-99.99,,,-99.99,,2013-01-07 19:22:00,
2013-01-07 11:32:00,50.0,49.0,29.89,SSE,165,2.0,-999.0,95,-99.99,,,-99.99,,2013-01-07 19:32:00,
2013-01-07 11:42:00,50.0,49.0,29.89,SSE,165,2.0,-999.0,95,-99.99,,,-99.99,,2013-01-07 19:42:00,
2013-01-07 11:53:00,50.0,49.0,29.87,SSW,194,2.0,-999.0,95,-99.99,,,-99.99,,2013-01-07 19:53:00,
2013-01-07 12:02:00,50.0,48.0,29.88,SSW,209,2.0,-999.0,94,-99.99,,,-99.99,,2013-01-07 20:02:00,
2013-01-07 12:12:00,50.0,48.0,29.88,SSW,209,2.0,-999.0,94,-99.99,,,-99.99,,2013-01-07 20:12:00,
2013-01-07 12:22:00,50.0,48.0,29.89,ESE,121,2.0,-999.0,94,-99.99,,,-99.99,,2013-01-07 20:22:00,
2013-01-07 12:32:00,50.0,48.0,29.89,SSE,155,2.0,-999.0,94,-99.99,,,-99.99,,2013-01-07 20:32:00,
2013-01-07 12:42:00,50.0,48.0,29.89,SSE,155,2.0,-999.0,94,-99.99,,,-99.99,,2013-01-07 20:42:00,
2013-01-07 12:53:00,50.0,48.0,29.90,SW,216,1.0,-999.0,94,-99.99,,,-99.99,,2013-01-07 20:53:00,
2013-01-07 13:02:00,51.0,49.0,29.91,South,186,1.0,-999.0,93,-99.99,,,-99.99,,2013-01-07 21:02:00,
2013-01-07 13:12:00,51.0,49.0,29.91,South,186,1.0,-999.0,93,-99.99,,,-99.99,,2013-01-07 21:12:00,
2013-01-07 13:22:00,51.0,49.0,29.91,SSW,203,1.0,-999.0,93,-99.99,,,-99.99,,2013-01-07 21:22:00,
2013-01-07 13:32:00,51.0,49.0,29.92,SSE,149,1.0,-999.0,92,-99.99,,,-99.99,,2013-01-07 21:32:00,
2013-01-07 13:42:00,51.0,49.0,29.92,SSE,149,1.0,-999.0,92,-99.99,,,-99.99,,2013-01-07 21:42:00,
2013-01-07 13:53:00,51.0,48.0,29.94,SSW,211,1.0,-999.0,91,-99.99,,,-99.99,,2013-01-07 21:53:00,
2013-01-07 14:02:00,51.0,48.0,29.94,SSE,151,2.0,-999.0,91,-99.99,,,-99.99,,2013-01-07 22:02:00,
2013-01-07 14:12:00,51.0,48.0,29.94,SSE,151,2.0,-999.0,91,-99.99,,,-99.99,,2013-01-07 22:12:00,
2013-01-07 14:22:00,51.0,48.0,29.96,South,184,1.0,-999.0,91,-99.99,,,-99.99,,2013-01-07 22:22:00,
2013-01-07 14:33:00,51.0,48.0,29.96,SSE,163,1.0,-999.0,90,-99.99,,,-99.99,,2013-01-07 22:33:00,
2013-01-07 14:42:00,51.0,48.0,29.96,SSE,163,1.0,-999.0,90,-99.99,,,-99.99,,2013-01-07 22:42:00,
2013-01-07 14:53:00,51.0,48.0,29.96,South,188,1.0,-999.0,90,-99.99,,,-99.99,,2013-01-07 22:53:00,
2013-01-07 15:02:00,51.0,48.0,29.96,South,188,1.0,-999.0,90,-99.99,,,-99.99,,2013-01-07 23:02:00,
2013-01-07 15:11:00,51.0,48.0,29.96,South,188,1.0,-999.0,90,-99.99,,,-99.99,,2013-01-07 23:11:00,
2013-01-07 15:22:00,51.0,48.0,29.96,South,188,1.0,-999.0,90,-99.99,,,-99.99,,2013-01-07 23:22:00,
2013-01-07 16:52:00,49.0,46.0,30.03,South,184,0.0,-999.0,90,-99.99,,,-99.99,,2013-01-08 00:52:00,
2013-01-07 17:02:00,49.0,46.0,30.03,SSW,198,1.0,-999.0,90,-99.99,,,-99.99,,2013-01-08 01:02:00,
2013-01-07 17:12:00,49.0,46.0,30.03,SSW,198,1.0,-999.0,90,-99.99,,,-99.99,,2013-01-08 01:12:00,
2013-01-07 17:22:00,49.0,46.0,30.04,SSW,200,0.0,-999.0,90,-99.99,,,-99.99,,2013-01-08 01:22:00,
2013-01-07 17:32:00,49.0,46.0,30.04,SSW,200,1.0,-999.0,90,-99.99,,,-99.99,,2013-01-08 01:32:00,
2013-01-07 17:42:00,49.0,46.0,30.04,SSW,200,1.0,-999.0,90,-99.99,,,-99.99,,2013-01-08 01:42:00,
2013-01-07 17:52:00,49.0,46.0,30.04,SSE,167,1.0,-999.0,90,-99.99,,,-99.99,,2013-01-08 01:52:00,
2013-01-07 18:02:00,49.0,46.0,30.04,SSE,155,1.0,-999.0,90,-99.99,,,-99.99,,2013-01-08 02:02:00,
2013-01-07 18:12:00,49.0,46.0,30.04,SSE,155,1.0,-999.0,90,-99.99,,,-99.99,,2013-01-08 02:12:00,
2013-01-07 18:22:00,49.0,46.0,30.06,SSE,160,0.0,-999.0,90,-99.99,,,-99.99,,2013-01-08 02:22:00,
2013-01-07 18:32:00,49.0,46.0,30.06,SSE,165,1.0,-999.0,90,-99.99,,,-99.99,,2013-01-08 02:32:00,
2013-01-07 18:42:00,49.0,46.0,30.06,SSE,165,1.0,-999.0,90,-99.99,,,-99.99,,2013-01-08 02:42:00,
2013-01-07 18:53:00,49.0,46.0,30.06,SSE,159,0.0,-999.0,89,-99.99,,,-99.99,,2013-01-08 02:53:00,
2013-01-07 19:02:00,49.0,46.0,30.06,SSE,147,0.0,-999.0,89,-99.99,,,-99.99,,2013-01-08 03:02:00,
2013-01-07 19:12:00,49.0,46.0,30.06,SSE,147,0.0,-999.0,89,-99.99,,,-99.99,,2013-01-08 03:12:00,
2013-01-07 19:22:00,49.0,46.0,30.08,SSW,192,0.0,-999.0,89,-99.99,,,-99.99,,2013-01-08 03:22:00,
2013-01-07 19:32:00,49.0,46.0,30.09,South,173,0.0,-999.0,89,-99.99,,,-99.99,,2013-01-08 03:32:00,
2013-01-07 19:42:00,49.0,46.0,30.09,South,173,0.0,-999.0,89,-99.99,,,-99.99,,2013-01-08 03:42:00,
2013-01-07 19:53:00,48.0,45.0,30.08,SE,140,0.0,-999.0,88,-99.99,,,-99.99,,2013-01-08 03:53:00,
2013-01-07 20:02:00,48.0,45.0,30.08,SSW,192,0.0,-999.0,88,-99.99,,,-99.99,,2013-01-08 04:02:00,
2013-01-07 20:11:00,48.0,45.0,30.08,SSW,192,0.0,-999.0,88,-99.99,,,-99.99,,2013-01-08 04:11:00,
2013-01-07 20:22:00,48.0,45.0,30.08,SSE,167,0.0,-999.0,88,-99.99,,,-99.99,,2013-01-08 04:22:00,
2013-01-07 20:32:00,48.0,44.0,30.09,SSW,211,1.0,-999.0,87,-99.99,,,-99.99,,2013-01-08 04:32:00,
2013-01-07 20:42:00,48.0,44.0,30.09,SSW,211,1.0,-999.0,87,-99.99,,,-99.99,,2013-01-08 04:42:00,
2013-01-07 20:52:00,48.0,44.0,30.10,SSW,207,1.0,-999.0,86,-99.99,,,-99.99,,2013-01-08 04:52:00,
2013-01-07 21:03:00,48.0,44.0,30.10,South,180,0.0,-999.0,87,-99.99,,,-99.99,,2013-01-08 05:03:00,
2013-01-07 21:12:00,48.0,44.0,30.10,South,180,0.0,-999.0,87,-99.99,,,-99.99,,2013-01-08 05:12:00,
2013-01-07 21:22:00,48.0,44.0,30.11,SSW,198,1.0,-999.0,86,-99.99,,,-99.99,,2013-01-08 05:22:00,
2013-01-07 21:32:00,48.0,44.0,30.11,SSW,198,1.0,-999.0,86,-99.99,,,-99.99,,2013-01-08 05:32:00,
2013-01-07 21:42:00,48.0,44.0,30.11,SSW,198,1.0,-999.0,86,-99.99,,,-99.99,,2013-01-08 05:42:00,
2013-01-07 21:53:00,48.0,44.0,30.13,South,180,0.0,-999.0,86,-99.99,,,-99.99,,2013-01-08 05:53:00,
2013-01-07 22:02:00,47.0,43.0,30.13,NE,37,0.0,-999.0,87,-99.99,,,-99.99,,2013-01-08 06:02:00,
2013-01-07 22:11:00,47.0,43.0,30.13,NE,37,0.0,-999.0,87,-99.99,,,-99.99,,2013-01-08 06:11:00,
2013-01-07 22:22:00,47.0,43.0,30.14,South,176,0.0,-999.0,87,-99.99,,,-99.99,,2013-01-08 06:22:00,
2013-01-07 22:32:00,47.0,43.0,30.13,South,170,0.0,-999.0,87,-99.99,,,-99.99,,2013-01-08 06:32:00,
2013-01-07 22:42:00,47.0,43.0,30.13,South,170,0.0,-999.0,87,-99.99,,,-99.99,,2013-01-08 06:42:00,
2013-01-07 22:52:00,47.0,44.0,30.14,South,184,0.0,-999.0,88,-99.99,,,-99.99,,2013-01-08 06:52:00,
2013-01-07 23:02:00,47.0,44.0,30.14,South,184,0.0,-999.0,88,-99.99,,,-99.99,,2013-01-08 07:02:00,
2013-01-07 23:11:00,47.0,44.0,30.14,South,184,0.0,-999.0,88,-99.99,,,-99.99,,2013-01-08 07:11:00,
2013-01-07 23:22:00,47.0,44.0,30.14,South,184,0.0,-999.0,88,-99.99,,,-99.99,,2013-01-08 07:22:00,